TimeEST,TemperatureF,Dew PointF,Humidity,Sea Level PressureIn,VisibilityMPH,Wind Direction,Wind SpeedMPH,Gust SpeedMPH,PrecipitationIn,Events,Conditions,WindDirDegrees,DateUTC
12:51 AM,17.1,12.0,81,30.04,5.0,NNW,6.9,-,0.01,Snow,Light Snow,340,2013-01-26 05:51:00
1:51 AM,17.1,12.0,81,30.03,7.0,North,5.8,-,0.00,,Mostly Cloudy,350,2013-01-26 06:51:00
2:51 AM,16.0,10.9,81,30.02,10.0,NW,4.6,-,N/A,,Mostly Cloudy,320,2013-01-26 07:51:00
3:51 AM,14.0,10.0,84,30.01,10.0,North,3.5,-,N/A,,Scattered Clouds,350,2013-01-26 08:51:00
4:51 AM,12.9,9.0,84,30.01,10.0,NNW,4.6,-,N/A,,Scattered Clouds,340,2013-01-26 09:51:00
5:51 AM,12.9,8.1,81,30.03,10.0,NNW,5.8,-,N/A,,Scattered Clouds,340,2013-01-26 10:51:00
6:51 AM,12.0,7.0,80,30.04,10.0,NNW,5.8,-,N/A,,Scattered Clouds,340,2013-01-26 11:51:00
7:51 AM,14.0,6.1,71,30.06,10.0,NNW,5.8,-,N/A,,Scattered Clouds,330,2013-01-26 12:51:00
8:51 AM,16.0,5.0,62,30.07,10.0,NNW,11.5,-,N/A,,Partly Cloudy,340,2013-01-26 13:51:00
9:51 AM,18.0,3.9,54,30.08,10.0,NNW,13.8,-,N/A,,Partly Cloudy,330,2013-01-26 14:51:00
10:51 AM,19.9,5.0,52,30.07,10.0,NNW,12.7,-,N/A,,Partly Cloudy,340,2013-01-26 15:51:00
11:51 AM,23.0,6.1,48,30.05,10.0,North,11.5,17.3,N/A,,Partly Cloudy,350,2013-01-26 16:51:00
12:51 PM,24.1,6.1,46,30.03,10.0,NW,9.2,-,N/A,,Partly Cloudy,320,2013-01-26 17:51:00
1:51 PM,25.0,5.0,43,30.04,10.0,WNW,10.4,18.4,N/A,,Partly Cloudy,300,2013-01-26 18:51:00
2:51 PM,25.0,3.0,39,30.06,10.0,NW,11.5,19.6,N/A,,Partly Cloudy,310,2013-01-26 19:51:00
3:51 PM,24.1,-0.9,34,30.08,10.0,NW,16.1,24.2,N/A,,Scattered Clouds,310,2013-01-26 20:51:00
4:51 PM,23.0,-2.0,34,30.11,10.0,NNW,11.5,18.4,N/A,,Scattered Clouds,330,2013-01-26 21:51:00
5:51 PM,21.9,-2.0,35,30.14,10.0,NW,15.0,20.7,N/A,,Scattered Clouds,320,2013-01-26 22:51:00
6:51 PM,21.0,-6.0,30,30.17,10.0,NW,17.3,25.3,N/A,,Mostly Cloudy,310,2013-01-26 23:51:00
7:51 PM,19.0,-5.1,34,30.19,10.0,NW,15.0,27.6,N/A,,Mostly Cloudy,320,2013-01-27 00:51:00
8:51 PM,18.0,-2.9,40,30.21,10.0,NW,11.5,-,N/A,,Scattered Clouds,320,2013-01-27 01:51:00
9:51 PM,17.1,-2.9,41,30.23,10.0,NW,10.4,-,N/A,,Partly Cloudy,320,2013-01-27 02:51:00
10:51 PM,16.0,-2.9,43,30.26,10.0,WNW,6.9,-,N/A,,Partly Cloudy,300,2013-01-27 03:51:00
11:51 PM,15.1,-2.9,45,30.27,10.0,WNW,5.8,-,N/A,,Clear,290,2013-01-27 04:51:00